Buoy 52912

sailwx.info

Track history (hours):
 
Tides and Currents Weather Stations Pressure Air Temp Water Temp Dewpoint Dewpoint Depression Visibility Wind Speed Wind Dir Waves Ship Positions

Drifting buoy 52912

Last reported at 2014-Oct-26 07:00 UTC. Time now 2014-Oct-26 07:40 UTC.
Position N 07°02' E 159°55'.

Water temperature 30.1 ° C

Date/timePositionNaut miles runAvg speedWind from/ knotsBaromVisibWave heightAir tempDewpointWater temp
2014-Oct-26 07:00N 07°02' E 159°55'0 0.2 30.1
2014-Oct-26 06:00N 07°01' E 159°55'1 0.2 30.2
2014-Oct-26 02:00N 07°01' E 159°54'0 0.0 30.2
2014-Oct-26 01:00N 07°01' E 159°54'1 0.1 30.1
2014-Oct-25 20:00N 07°01' E 159°54'1 0.6 29.7
2014-Oct-25 18:00N 07°01' E 159°55'1 0.5 29.7
2014-Oct-25 17:00N 07°01' E 159°55'1 0.3 29.7
2014-Oct-25 15:00N 07°01' E 159°55'1 0.3 29.8
2014-Oct-25 11:00N 07°01' E 159°54'1 0.6 29.8
2014-Oct-25 10:00N 07°01' E 159°54'0 0.0 29.8
2014-Oct-25 09:00N 07°01' E 159°54'1 0.5 29.8
2014-Oct-25 07:00N 07°00' E 159°55'1 0.2 29.9
2014-Oct-25 04:00N 06°60' E 159°55'1 0.2 30.1
2014-Oct-24 23:00N 06°59' E 159°54'1 0.1 29.9
2014-Oct-24 19:00N 06°58' E 159°55'0 0.0 29.7
2014-Oct-24 18:00N 06°58' E 159°55'0 0.0 29.7
2014-Oct-24 17:00N 06°58' E 159°55'1 0.6 29.8
2014-Oct-24 15:00N 06°58' E 159°54'0 0.0 29.8
2014-Oct-24 14:00N 06°58' E 159°54'2 0.7 29.8
2014-Oct-24 11:00N 06°56' E 159°54'1 0.4 29.8
2014-Oct-24 09:00N 06°56' E 159°55'1 1.4 29.9
2014-Oct-24 08:00N 06°57' E 159°56'1 0.2 29.9
2014-Oct-24 04:00N 06°57' E 159°57'1 0.3 30.0
2014-Oct-24 02:00N 06°57' E 159°56'0 0.1 29.9
2014-Oct-24 01:00N 06°57' E 159°57'1 1.3 29.9
2014-Oct-24 00:00N 06°58' E 159°56'0 0.0 29.9
2014-Oct-23 23:00N 06°58' E 159°56'0 0.0 29.8
2014-Oct-23 22:00N 06°58' E 159°56'2 0.7 29.7
2014-Oct-23 19:00N 06°60' E 159°58'1 0.4 29.7
2014-Oct-23 17:00N 06°60' E 159°57'0 0.1 29.7
2014-Oct-23 15:00N 06°60' E 159°57'0 0.0 29.7
2014-Oct-23 14:00N 06°60' E 159°57'2 0.8 29.7
2014-Oct-23 11:00N 06°59' E 159°55'0 0.0 29.7
2014-Oct-23 10:00N 06°59' E 159°55'1 0.4 29.7
2014-Oct-23 06:00N 07°00' E 159°55'0 0.1 29.8
2014-Oct-23 04:00N 07°00' E 159°55'1 0.2 29.8
2014-Oct-22 23:00N 07°01' E 159°55'0 0.1 29.8
2014-Oct-22 22:00N 07°01' E 159°55'1 0.4 29.8
2014-Oct-22 20:00N 07°01' E 159°54'1 1.0 29.7
2014-Oct-22 19:00N 07°01' E 159°55'1 0.3 29.7
2014-Oct-22 17:00N 07°02' E 159°54'1 0.3 29.7
2014-Oct-22 15:00N 07°02' E 159°54'1 0.3 29.7
2014-Oct-22 11:00N 07°02' E 159°53'1 0.5 29.8
2014-Oct-22 10:00N 07°03' E 159°53'1 0.2 29.8
2014-Oct-22 07:00N 07°03' E 159°52'1 1.2 29.8
2014-Oct-22 06:00N 07°05' E 159°52'0 0.0 29.8
2014-Oct-22 05:00N 07°05' E 159°52'0 0.0 29.8
2014-Oct-22 03:00N 07°05' E 159°52'1 0.4 29.9
2014-Oct-21 23:00N 07°05' E 159°51'1 0.1 29.8
2014-Oct-21 19:00N 07°06' E 159°51'1 0.5 29.8
2014-Oct-21 18:00N 07°06' E 159°51'1 0.2 29.8
2014-Oct-21 11:00N 07°06' E 159°50'0 0.2 30.1
2014-Oct-21 08:00N 07°06' E 159°49'0 0.1 30.4
2014-Oct-21 05:00N 07°06' E 159°49'1 0.3 30.8
2014-Oct-21 03:00N 07°06' E 159°48'1 0.2 30.8
2014-Oct-20 23:00N 07°07' E 159°48'0 0.0 30.0
2014-Oct-20 21:00N 07°07' E 159°48'1 0.3 29.8
2014-Oct-20 19:00N 07°07' E 159°47'0 0.3 29.8
2014-Oct-20 18:00N 07°07' E 159°47'0 0.0 29.8
2014-Oct-20 17:00N 07°07' E 159°47'0 0.4 29.8
2014-Oct-20 16:00N 07°07' E 159°47'0 0.1 29.8
2014-Oct-20 11:00N 07°06' E 159°47'1 0.3 29.9
2014-Oct-20 09:00N 07°06' E 159°46'1 0.5 29.9
2014-Oct-20 07:00N 07°05' E 159°46'1 0.5 30.1
2014-Oct-20 04:00N 07°05' E 159°47'1 0.1 30.2
2014-Oct-19 22:00N 07°05' E 159°46'1 0.3 29.9
2014-Oct-19 20:00N 07°04' E 159°46'1 0.9 29.8
2014-Oct-19 19:00N 07°05' E 159°47'2 0.5 29.8
2014-Oct-19 16:00N 07°05' E 159°48'1 0.2 29.9
2014-Oct-19 10:00N 07°06' E 159°49'1 0.1 30.1
2014-Oct-19 05:00N 07°07' E 159°48'1 0.7 30.5
2014-Oct-19 03:00N 07°08' E 159°49'4 0.5 30.5
2014-Oct-18 19:00N 07°10' E 159°46'0 0.3 29.8
2014-Oct-18 18:00N 07°10' E 159°46'0 0.0 29.8
2014-Oct-18 16:00N 07°10' E 159°46'0 0.0 29.8
2014-Oct-18 15:00N 07°10' E 159°46'2 0.5 29.8
2014-Oct-18 11:00N 07°11' E 159°44'1 0.5 29.9
2014-Oct-18 10:00N 07°11' E 159°44'1 0.4 30.0
2014-Oct-18 08:00N 07°12' E 159°44'0 0.1 30.1
2014-Oct-18 07:00N 07°11' E 159°44'0 0.1 30.2
2014-Oct-18 03:00N 07°12' E 159°43'0 0.0 30.5
2014-Oct-18 02:00N 07°12' E 159°43'1 0.5 30.4
2014-Oct-17 23:00N 07°12' E 159°42'0 0.0 29.9
2014-Oct-17 22:00N 07°12' E 159°42'3 0.5 29.7
2014-Oct-17 16:00N 07°11' E 159°39'0 0.0 29.6
2014-Oct-17 15:00N 07°11' E 159°39'0 0.0 29.6
2014-Oct-17 14:00N 07°11' E 159°39'1 0.3 29.6
2014-Oct-17 11:00N 07°11' E 159°38'1 0.8 29.7
2014-Oct-17 10:00N 07°11' E 159°38'1 0.5 29.7
2014-Oct-17 08:00N 07°11' E 159°37'0 0.1 29.7
2014-Oct-17 07:00N 07°11' E 159°37'1 0.8 29.8
2014-Oct-17 06:00N 07°11' E 159°36'2 0.3 29.8
2014-Oct-17 00:00N 07°10' E 159°34'1 0.7 29.7
2014-Oct-16 23:00N 07°10' E 159°35'3 0.9 29.6
2014-Oct-16 20:00N 07°10' E 159°32'0 0.0 29.5
2014-Oct-16 19:00N 07°10' E 159°32'2 1.1 29.5
2014-Oct-16 17:00N 07°10' E 159°30'   29.6
Track history (hours):
 
Tides and Currents Weather Stations Pressure Air Temp Water Temp Dewpoint Dewpoint Depression Visibility Wind Speed Wind Dir Waves Ship Positions

Drifting buoy 52912

Last reported at 2014-Oct-26 07:00 UTC. Time now 2014-Oct-26 07:40 UTC.
Position N 07°02' E 159°55'.

Water temperature 30.1 ° C

Date/timePositionNaut miles runAvg speedWind from/ knotsBaromVisibWave heightAir tempDewpointWater temp
2014-Oct-26 07:00N 07°02' E 159°55'0 0.2 30.1
2014-Oct-26 06:00N 07°01' E 159°55'1 0.2 30.2
2014-Oct-26 02:00N 07°01' E 159°54'0 0.0 30.2
2014-Oct-26 01:00N 07°01' E 159°54'1 0.1 30.1
2014-Oct-25 20:00N 07°01' E 159°54'1 0.6 29.7
2014-Oct-25 18:00N 07°01' E 159°55'1 0.5 29.7
2014-Oct-25 17:00N 07°01' E 159°55'1 0.3 29.7
2014-Oct-25 15:00N 07°01' E 159°55'1 0.3 29.8
2014-Oct-25 11:00N 07°01' E 159°54'1 0.6 29.8
2014-Oct-25 10:00N 07°01' E 159°54'0 0.0 29.8
2014-Oct-25 09:00N 07°01' E 159°54'1 0.5 29.8
2014-Oct-25 07:00N 07°00' E 159°55'1 0.2 29.9
2014-Oct-25 04:00N 06°60' E 159°55'1 0.2 30.1
2014-Oct-24 23:00N 06°59' E 159°54'1 0.1 29.9
2014-Oct-24 19:00N 06°58' E 159°55'0 0.0 29.7
2014-Oct-24 18:00N 06°58' E 159°55'0 0.0 29.7
2014-Oct-24 17:00N 06°58' E 159°55'1 0.6 29.8
2014-Oct-24 15:00N 06°58' E 159°54'0 0.0 29.8
2014-Oct-24 14:00N 06°58' E 159°54'2 0.7 29.8
2014-Oct-24 11:00N 06°56' E 159°54'1 0.4 29.8
2014-Oct-24 09:00N 06°56' E 159°55'1 1.4 29.9
2014-Oct-24 08:00N 06°57' E 159°56'1 0.2 29.9
2014-Oct-24 04:00N 06°57' E 159°57'1 0.3 30.0
2014-Oct-24 02:00N 06°57' E 159°56'0 0.1 29.9
2014-Oct-24 01:00N 06°57' E 159°57'1 1.3 29.9
2014-Oct-24 00:00N 06°58' E 159°56'0 0.0 29.9
2014-Oct-23 23:00N 06°58' E 159°56'0 0.0 29.8
2014-Oct-23 22:00N 06°58' E 159°56'2 0.7 29.7
2014-Oct-23 19:00N 06°60' E 159°58'1 0.4 29.7
2014-Oct-23 17:00N 06°60' E 159°57'0 0.1 29.7
2014-Oct-23 15:00N 06°60' E 159°57'0 0.0 29.7
2014-Oct-23 14:00N 06°60' E 159°57'2 0.8 29.7
2014-Oct-23 11:00N 06°59' E 159°55'0 0.0 29.7
2014-Oct-23 10:00N 06°59' E 159°55'1 0.4 29.7
2014-Oct-23 06:00N 07°00' E 159°55'0 0.1 29.8
2014-Oct-23 04:00N 07°00' E 159°55'1 0.2 29.8
2014-Oct-22 23:00N 07°01' E 159°55'0 0.1 29.8
2014-Oct-22 22:00N 07°01' E 159°55'1 0.4 29.8
2014-Oct-22 20:00N 07°01' E 159°54'1 1.0 29.7
2014-Oct-22 19:00N 07°01' E 159°55'1 0.3 29.7
2014-Oct-22 17:00N 07°02' E 159°54'1 0.3 29.7
2014-Oct-22 15:00N 07°02' E 159°54'1 0.3 29.7
2014-Oct-22 11:00N 07°02' E 159°53'1 0.5 29.8
2014-Oct-22 10:00N 07°03' E 159°53'1 0.2 29.8
2014-Oct-22 07:00N 07°03' E 159°52'1 1.2 29.8
2014-Oct-22 06:00N 07°05' E 159°52'0 0.0 29.8
2014-Oct-22 05:00N 07°05' E 159°52'0 0.0 29.8
2014-Oct-22 03:00N 07°05' E 159°52'1 0.4 29.9
2014-Oct-21 23:00N 07°05' E 159°51'1 0.1 29.8
2014-Oct-21 19:00N 07°06' E 159°51'1 0.5 29.8
2014-Oct-21 18:00N 07°06' E 159°51'1 0.2 29.8
2014-Oct-21 11:00N 07°06' E 159°50'0 0.2 30.1
2014-Oct-21 08:00N 07°06' E 159°49'0 0.1 30.4
2014-Oct-21 05:00N 07°06' E 159°49'1 0.3 30.8
2014-Oct-21 03:00N 07°06' E 159°48'1 0.2 30.8
2014-Oct-20 23:00N 07°07' E 159°48'0 0.0 30.0
2014-Oct-20 21:00N 07°07' E 159°48'1 0.3 29.8
2014-Oct-20 19:00N 07°07' E 159°47'0 0.3 29.8
2014-Oct-20 18:00N 07°07' E 159°47'0 0.0 29.8
2014-Oct-20 17:00N 07°07' E 159°47'0 0.4 29.8
2014-Oct-20 16:00N 07°07' E 159°47'0 0.1 29.8
2014-Oct-20 11:00N 07°06' E 159°47'1 0.3 29.9
2014-Oct-20 09:00N 07°06' E 159°46'1 0.5 29.9
2014-Oct-20 07:00N 07°05' E 159°46'1 0.5 30.1
2014-Oct-20 04:00N 07°05' E 159°47'1 0.1 30.2
2014-Oct-19 22:00N 07°05' E 159°46'1 0.3 29.9
2014-Oct-19 20:00N 07°04' E 159°46'1 0.9 29.8
2014-Oct-19 19:00N 07°05' E 159°47'2 0.5 29.8
2014-Oct-19 16:00N 07°05' E 159°48'1 0.2 29.9
2014-Oct-19 10:00N 07°06' E 159°49'1 0.1 30.1
2014-Oct-19 05:00N 07°07' E 159°48'1 0.7 30.5
2014-Oct-19 03:00N 07°08' E 159°49'4 0.5 30.5
2014-Oct-18 19:00N 07°10' E 159°46'0 0.3 29.8
2014-Oct-18 18:00N 07°10' E 159°46'0 0.0 29.8
2014-Oct-18 16:00N 07°10' E 159°46'0 0.0 29.8
2014-Oct-18 15:00N 07°10' E 159°46'2 0.5 29.8
2014-Oct-18 11:00N 07°11' E 159°44'1 0.5 29.9
2014-Oct-18 10:00N 07°11' E 159°44'1 0.4 30.0
2014-Oct-18 08:00N 07°12' E 159°44'0 0.1 30.1
2014-Oct-18 07:00N 07°11' E 159°44'0 0.1 30.2
2014-Oct-18 03:00N 07°12' E 159°43'0 0.0 30.5
2014-Oct-18 02:00N 07°12' E 159°43'1 0.5 30.4
2014-Oct-17 23:00N 07°12' E 159°42'0 0.0 29.9
2014-Oct-17 22:00N 07°12' E 159°42'3 0.5 29.7
2014-Oct-17 16:00N 07°11' E 159°39'0 0.0 29.6
2014-Oct-17 15:00N 07°11' E 159°39'0 0.0 29.6
2014-Oct-17 14:00N 07°11' E 159°39'1 0.3 29.6
2014-Oct-17 11:00N 07°11' E 159°38'1 0.8 29.7
2014-Oct-17 10:00N 07°11' E 159°38'1 0.5 29.7
2014-Oct-17 08:00N 07°11' E 159°37'0 0.1 29.7
2014-Oct-17 07:00N 07°11' E 159°37'1 0.8 29.8
2014-Oct-17 06:00N 07°11' E 159°36'2 0.3 29.8
2014-Oct-17 00:00N 07°10' E 159°34'1 0.7 29.7
2014-Oct-16 23:00N 07°10' E 159°35'3 0.9 29.6
2014-Oct-16 20:00N 07°10' E 159°32'0 0.0 29.5
2014-Oct-16 19:00N 07°10' E 159°32'2 1.1 29.5
2014-Oct-16 17:00N 07°10' E 159°30'   29.6

Dump ship's entire track history